TimeEST,TemperatureF,Dew PointF,Humidity,Sea Level PressureIn,VisibilityMPH,Wind Direction,Wind SpeedMPH,Gust SpeedMPH,PrecipitationIn,Events,Conditions,WindDirDegrees,DateUTC
12:15 AM,66.2,66.2,100,29.80,5.0,Calm,Calm,-,N/A,,Mostly Cloudy,0,2013-02-26 05:15:00
12:35 AM,66.2,66.2,100,29.79,5.0,Calm,Calm,-,N/A,,Mostly Cloudy,0,2013-02-26 05:35:00
12:55 AM,66.2,66.2,100,29.79,6.0,Calm,Calm,-,N/A,,Overcast,0,2013-02-26 05:55:00
1:15 AM,66.2,66.2,100,29.78,5.0,Calm,Calm,-,N/A,,Mostly Cloudy,0,2013-02-26 06:15:00
1:55 AM,66.2,66.2,100,29.77,4.0,Calm,Calm,-,N/A,,Overcast,0,2013-02-26 06:55:00
2:15 AM,66.2,66.2,100,29.75,3.0,Calm,Calm,-,N/A,,Overcast,0,2013-02-26 07:15:00
2:35 AM,66.2,66.2,100,29.75,4.0,SE,3.5,-,N/A,,Overcast,130,2013-02-26 07:35:00
2:55 AM,66.2,66.2,100,29.75,4.0,Calm,Calm,-,N/A,,Mostly Cloudy,0,2013-02-26 07:55:00
3:15 AM,66.2,66.2,100,29.73,5.0,Calm,Calm,-,N/A,,Mostly Cloudy,0,2013-02-26 08:15:00
3:35 AM,66.2,66.2,100,29.73,4.0,Calm,Calm,-,N/A,,Mostly Cloudy,0,2013-02-26 08:35:00
3:55 AM,66.2,66.2,100,29.72,4.0,Calm,Calm,-,N/A,,Mostly Cloudy,0,2013-02-26 08:55:00
4:15 AM,66.2,66.2,100,29.73,4.0,Calm,Calm,-,N/A,,Mostly Cloudy,0,2013-02-26 09:15:00
4:35 AM,66.2,66.2,100,29.73,4.0,Calm,Calm,-,N/A,Thunderstorm,Scattered Clouds,0,2013-02-26 09:35:00
4:55 AM,66.2,66.2,100,29.73,7.0,Calm,Calm,-,N/A,,Partly Cloudy,0,2013-02-26 09:55:00
5:15 AM,66.2,66.2,100,29.72,7.0,Calm,Calm,-,N/A,,Partly Cloudy,0,2013-02-26 10:15:00
5:35 AM,66.2,66.2,100,29.71,8.0,SE,4.6,-,N/A,,Clear,130,2013-02-26 10:35:00
5:55 AM,68.0,66.2,94,29.68,8.0,SE,4.6,-,N/A,,Clear,140,2013-02-26 10:55:00
6:15 AM,68.0,66.2,94,29.69,9.0,SSE,4.6,-,N/A,,Clear,150,2013-02-26 11:15:00
6:50 AM,68.0,66.2,94,29.68,7.0,South,12.7,-,N/A,Rain,Rain,170,2013-02-26 11:50:00
7:50 AM,68.0,66.2,94,29.70,5.0,South,11.5,23.0,N/A,Rain,Light Rain,180,2013-02-26 12:50:00
8:50 AM,68.0,68.0,100,29.73,5.0,South,9.2,-,N/A,Rain,Light Rain,180,2013-02-26 13:50:00
9:15 AM,68.0,68.0,100,29.74,2.5,South,9.2,-,N/A,Rain,Light Rain,180,2013-02-26 14:15:00
9:50 AM,68.0,68.0,100,29.75,2.5,SSW,11.5,-,N/A,Rain,Light Rain,200,2013-02-26 14:50:00
10:30 AM,66.2,64.4,94,29.75,5.0,South,12.7,23.0,N/A,,Mostly Cloudy,180,2013-02-26 15:30:00
10:50 AM,66.2,66.2,100,29.74,7.0,South,12.7,27.6,N/A,,Mostly Cloudy,180,2013-02-26 15:50:00
11:50 AM,71.6,66.2,83,29.74,10.0,South,16.1,23.0,N/A,,Mostly Cloudy,190,2013-02-26 16:50:00
12:50 PM,73.4,60.8,65,29.73,10.0,South,11.5,20.7,N/A,,Partly Cloudy,190,2013-02-26 17:50:00
1:50 PM,77.0,53.6,44,29.70,10.0,SSW,16.1,23.0,N/A,,Clear,200,2013-02-26 18:50:00
2:50 PM,77.0,53.6,44,29.71,10.0,SSW,17.3,23.0,N/A,,Clear,210,2013-02-26 19:50:00
3:50 PM,75.2,55.4,50,29.72,10.0,SW,20.7,32.2,N/A,,Clear,230,2013-02-26 20:50:00
7:50 PM,64.4,55.4,73,29.78,10.0,SW,11.5,-,N/A,,Clear,220,2013-02-27 00:50:00
8:15 PM,64.4,55.4,73,29.79,10.0,SW,12.7,-,N/A,,Clear,220,2013-02-27 01:15:00
8:35 PM,62.6,55.4,77,29.80,10.0,SW,13.8,-,N/A,,Clear,220,2013-02-27 01:35:00
8:55 PM,62.6,55.4,77,29.80,10.0,SW,13.8,21.9,N/A,,Clear,220,2013-02-27 01:55:00
9:15 PM,62.6,55.4,77,29.81,10.0,SW,11.5,-,N/A,,Clear,220,2013-02-27 02:15:00
9:35 PM,62.6,55.4,77,29.81,10.0,SW,12.7,18.4,N/A,,Clear,220,2013-02-27 02:35:00
9:55 PM,60.8,55.4,82,29.82,10.0,SW,12.7,17.3,N/A,,Clear,220,2013-02-27 02:55:00
10:15 PM,60.8,55.4,82,29.82,9.0,SW,12.7,17.3,N/A,,Clear,220,2013-02-27 03:15:00
10:55 PM,59.0,55.4,88,29.84,10.0,WSW,10.4,16.1,N/A,,Clear,240,2013-02-27 03:55:00
11:15 PM,59.0,55.4,88,29.84,10.0,WSW,10.4,16.1,N/A,,Clear,240,2013-02-27 04:15:00
11:35 PM,59.0,53.6,82,29.84,10.0,WSW,16.1,23.0,N/A,,Clear,250,2013-02-27 04:35:00
11:55 PM,59.0,53.6,82,29.85,10.0,West,13.8,20.7,N/A,,Clear,260,2013-02-27 04:55:00